Lumberton, NJ

1:19 AM EDT on August 31, 2016 (GMT -0400)
South Jersey Regional

Weather History for KVAY - June, 2014

Change the Weather History Date:

Tuesday, June 17, 2014

  Actual Average (KWRI) Record (KWRI)
Temperature  
Mean Temperature 80 °F -  
Max Temperature 91 °F 78 °F 93 °F (2014)
Min Temperature 69 °F 59 °F 48 °F (2003)
Cooling Degree Days 15    
Growing Degree Days 30 (Base 50)    
Moisture  
Dew Point 66 °F    
Average Humidity 65    
Maximum Humidity 93    
Minimum Humidity 38    
Precipitation  
Precipitation 0.00 in - - ()
Sea Level Pressure  
Sea Level Pressure 30.01 in    
Wind  
Wind Speed 3 mph (SW)    
Max Wind Speed 10 mph    
Max Gust Speed -    
Visibility 8 miles    
Events      
Averages and records for this station are not official NWS values.
T = Trace of Precipitation, MM = Missing Value Source: NWS Daily Summary

Daily Weather History Graph

Daily Weather History Graph

Search for Another Location

Airport or City:

Trip Planner

Search our weather history database for the weather conditions in past years. The results will help you decide how hot, cold, wet, or windy it might be!

Date:

Astronomy

Jun. 17, 2014 Rise Set
Actual Time 5:30 AM EDT 8:30 PM EDT
Civil Twilight 4:57 AM EDT 9:03 PM EDT
Nautical Twilight 4:15 AM EDT 9:44 PM EDT
Astronomical Twilight 3:27 AM EDT 10:33 PM EDT
Moon 11:58 PM EDT (6/17) 10:41 AM EDT (6/17)
Length of Visible Light 16h 05m
Length of Day
15h 00m
Waning Gibbous, 73% of the Moon is Illuminated
Jun 17
Waning Gibbous
Jun 19
Last Quarter
Jun 27
New
Jul 5
First Quarter
Jul 12
Full

Hourly Weather History & Observations

Time (EDT) Temp. Heat Index Dew Point Humidity Pressure Visibility Wind Dir Wind Speed Gust Speed Precip Events Conditions
12:54 AM 71.1 °F - 60.1 °F 68% 30.07 in 10.0 mi Calm Calm - N/A   Mostly Cloudy
1:54 AM 70.0 °F - 61.0 °F 73% 30.05 in 10.0 mi Calm Calm - N/A   Clear
2:54 AM 70.0 °F - 64.0 °F 81% 30.04 in 10.0 mi Variable 4.6 mph - N/A   Mostly Cloudy
3:54 AM 71.1 °F - 64.9 °F 81% 30.04 in 10.0 mi Variable 3.5 mph - N/A   Overcast
4:54 AM 70.0 °F - 66.9 °F 90% 30.03 in 7.0 mi South 3.5 mph - 0.00 in   Scattered Clouds
5:54 AM 69.1 °F - 66.0 °F 90% 30.04 in 3.0 mi Calm Calm - N/A   Partly Cloudy
6:43 AM 70.0 °F - 68.0 °F 93% 30.06 in 2.5 mi Calm Calm - N/A   Mostly Cloudy
6:54 AM 70.0 °F - 68.0 °F 93% 30.06 in 3.0 mi Calm Calm - N/A   Partly Cloudy
7:54 AM 75.0 °F - 70.0 °F 84% 30.07 in 5.0 mi Variable 4.6 mph - N/A   Haze
8:54 AM 79.0 °F - 70.0 °F 74% 30.08 in 7.0 mi Variable 3.5 mph - N/A   Clear
9:54 AM 82.0 °F 85.5 °F 69.1 °F 65% 30.07 in 8.0 mi WNW 5.8 mph - N/A   Clear
10:54 AM 84.0 °F 87.8 °F 69.1 °F 61% 30.06 in 8.0 mi Variable 3.5 mph - N/A   Clear
11:54 AM 87.1 °F 90.6 °F 68.0 °F 53% 30.05 in 9.0 mi Variable 5.8 mph - N/A   Clear
12:54 PM 88.0 °F 91.4 °F 68.0 °F 51% 30.04 in 10.0 mi Variable 6.9 mph - N/A   Clear
1:54 PM 89.1 °F 91.3 °F 66.0 °F 46% 30.03 in 10.0 mi West 10.4 mph - N/A   Clear
2:54 PM 89.1 °F 92.1 °F 66.9 °F 48% 30.01 in 10.0 mi Variable 3.5 mph - N/A   Scattered Clouds
3:54 PM 91.0 °F 93.0 °F 64.9 °F 42% 29.99 in 10.0 mi Variable 4.6 mph - N/A   Partly Cloudy
4:54 PM 91.9 °F 92.9 °F 63.0 °F 38% 29.97 in 10.0 mi West 8.1 mph - N/A   Partly Cloudy
5:54 PM 91.0 °F 91.5 °F 62.1 °F 38% 29.96 in 10.0 mi SW 8.1 mph - N/A   Clear
6:54 PM 89.1 °F 91.3 °F 66.0 °F 46% 29.96 in 10.0 mi SW 6.9 mph - N/A   Clear
7:54 PM 86.0 °F 88.2 °F 66.0 °F 51% 29.95 in 10.0 mi SSW 4.6 mph - N/A   Clear
8:54 PM 82.9 °F 85.4 °F 66.9 °F 58% 29.94 in 10.0 mi Variable 3.5 mph - N/A   Clear
9:54 PM 80.1 °F 82.7 °F 68.0 °F 67% 29.95 in 10.0 mi Variable 3.5 mph - N/A   Clear
10:54 PM 79.0 °F - 68.0 °F 69% 29.92 in 10.0 mi South 3.5 mph - N/A   Clear
11:54 PM 81.0 °F 83.8 °F 68.0 °F 65% 29.92 in 10.0 mi SW 4.6 mph - N/A   Clear